Orbital Elements at Epoch 2459000.5 (2020-May-31.0) TDB
Reference: JPL 20 (heliocentric ecliptic J2000)
Element | Value | Uncertainty (1-sigma) | Units |
e | .08948382845199025 | 3.3436e-08 | |
a | 2.352779858837655 | 9.2648e-09 | au |
q | 2.142244109564129 | 7.8568e-08 | au |
i | 6.02345887268036 | 3.9574e-06 | deg |
node | 180.4626082860997 | 3.1507e-05 | deg |
peri | 68.80203408989945 | 4.0612e-05 | deg |
M | 355.0758682867926 | 2.3267e-05 | deg |
tp | 2459018.530074773081 (2020-Jun-18.03007477) | 8.5156e-05 | TDB |
period | 1318.166794949776 3.61 | 7.786e-06 2.132e-08 | d yr |
n | .2731065608534894 | 1.6132e-09 | deg/d |
Q | 2.563315608111182 | 1.0094e-08 | au |
|
| | Orbit Determination Parameters
Additional Information
|